Location: Caltech
(34.1382°N, 118.1253°W)
Time: 12:48:21
(UTC-07:00)

FENGYUN 3A - Visible Passes

Search period start: 25 April 2015 00:00
Search period end: 05 May 2015 00:00
Orbit: 819 x 834 km, 98.5° (Epoch: 25 April)

Date Brightness Start Highest point End Pass type
(mag) Time Alt. Az. Time Alt. Az. Time Alt. Az.
25 Apr 3.8 21:02:02 30° SE 21:04:23 52° ENE 21:09:35 10° N visible
25 Apr 5.9 22:43:32 15° WSW 22:45:01 16° W 22:48:04 10° NW visible
26 Apr 4.4 20:42:56 21° ESE 20:45:40 34° ENE 20:50:30 10° N visible
26 Apr 5.4 22:24:25 22° WSW 22:26:00 25° W 22:30:15 10° NW visible
27 Apr 4.9 20:23:50 14° ESE 20:27:00 23° ENE 20:31:12 10° NNE visible
27 Apr 4.8 22:05:19 30° SW 22:07:04 37° W 22:11:59 10° NNW visible
28 Apr 5.3 20:05:27 10° E 20:08:22 16° ENE 20:11:32 10° NNE visible
28 Apr 4.1 21:46:12 36° SSW 21:48:12 58° W 21:53:28 10° NNW visible
29 Apr 3.6 21:27:06 36° SSE 21:29:23 88° WSW 21:34:47 10° NNW visible
30 Apr 3.7 21:08:00 29° SE 21:10:37 61° ENE 21:15:55 10° N visible
30 Apr 6.0 22:49:29 12° WSW 22:51:23 13° W 22:53:45 10° WNW visible
01 May 4.2 20:48:54 21° SE 20:51:54 40° ENE 20:56:54 10° N visible
01 May 5.6 22:30:23 18° WSW 22:32:21 21° W 22:36:15 10° NW visible
02 May 4.7 20:29:47 14° ESE 20:33:13 27° ENE 20:37:41 10° NNE visible
02 May 5.0 22:11:17 24° SW 22:13:23 32° W 22:18:06 10° NW visible
03 May 5.2 20:11:10 10° ESE 20:14:34 18° ENE 20:18:11 10° NNE visible
03 May 4.3 21:52:10 30° SSW 21:54:29 49° W 21:59:40 10° NNW visible
04 May 3.7 21:33:04 32° S 21:35:39 76° WSW 21:41:02 10° NNW visible
